Regional Weather Roundup
Issued by NWS

Home | Current Version | Previous Version | Graphics & Text | Print | Product List | Glossary On
Versions: 1 2 3 4 5 6 7 8 9 10 11 12 13 14 15 16 17 18 19 20 21 22 23 24 25 26 27 28 29 30 31 32 33 34 35 36 37 38 39 40 41 42 43 44 45 46 47 48 49 50
000
ASUS43 KLOT 261502
RWRIL

ILLINOIS REGIONAL WEATHER ROUNDUP
NATIONAL WEATHER SERVICE CHICAGO/ROMEOVILLE IL
1000 AM CDT THU MAR 26 2015

NOTE: "FAIR" INDICATES FEW OR NO CLOUDS BELOW 12,000 FEET WITH NO
SIGNIFICANT WEATHER AND/OR OBSTRUCTIONS TO VISIBILITY.

* THESE STATIONS ARE NOT UNDER NWS QUALITY CONTROL. THEY ALSO MAY NOT
  REPORT WEATHER SUCH AS PRECIPITATION OR FOG.

ILZ001-002-007-009-015-016-024-261600-
NORTHWEST ILLINOIS

CITY           SKY/WX    TMP DP  RH WIND       PRES   REMARKS
MOLINE         SUNNY     37  24  59 NW15G23   30.07S WCI  28
STERLING*      SUNNY     37  27  65 NW13      30.04S WCI  29
SAVANNA*       MOSUNNY   37  22  55 N10       30.04S WCI  30
$$

ILZ003-004-008-010-011-017-018-261600-
NORTH CENTRAL ILLINOIS

CITY           SKY/WX    TMP DP  RH WIND       PRES   REMARKS
ROCKFORD       MOSUNNY   36  25  64 NW10      30.02S WCI  28
FREEPORT*      PTSUNNY   34  25  70 NW13      30.03R WCI  25
ROCHELLE*      MOSUNNY   35  28  74 W12       30.02S WCI  27
DE KALB*       MOSUNNY   34  26  72 NW12G18   30.01R WCI  26
$$

ILZ005-006-012>014-019>023-261600-
NORTHEAST ILLINOIS

CITY           SKY/WX    TMP DP  RH WIND       PRES   REMARKS
CHICAGO-OHARE  PTSUNNY   36  24  62 N10       29.98R WCI  28
CHICAGO-MIDWAY PTSUNNY   38  26  62 NW8       29.99R WCI  32
AURORA         MOSUNNY   38  27  64 NW12      30.00S WCI  30
LANSING*       CLOUDY    37  24  60 NW8       29.99S WCI  31
WAUKEGAN       CLOUDY    38  23  55 VRB6      29.96S WCI  33
DUPAGE AIRPORT CLOUDY    36  25  64 NW14      29.99R WCI  27
WHEELING       PTSUNNY   38  24  57 NW10      29.99S WCI  31
NORTHERLY ISL    N/A     38  24  57 N8          N/A  WCI  32
$$

LMZ740>746-261600-
SOUTHERN LAKE MICHIGAN

STATION/POSITION SKY/WX   TEMP    WIND        PRES    VSBY  WAVE
                          AIR SEA DIR/SP/G                  HT/PER
                          (F)     (DEG/KT/KT) (MB)    (MI)  (FT/S)
HARRISON CRIB              35     320/ 11/ 13   N/A
BURNHAM HARBOR             37     280/  5/ 12   N/A
CALUMET HARBOR             36     320/  6/  9 1014.1R
BURNS HARBOR               36     320/ 11/ 14 1015.6S
MICHIGAN CITY              34     280/ 12/ 13   N/A
$$

ILZ025>027-034>036-040-047-049-050-058-095>099-261600-
WEST-CENTRAL ILLINOIS

CITY           SKY/WX    TMP DP  RH WIND       PRES   REMARKS
QUINCY         SUNNY     38  27  64 N15       30.11F WCI  29
MACOMB*        SUNNY     37  29  70 N17G23    30.12S WCI  28
PITTSFIELD*    MOSUNNY   39  29  69 NW17      30.11F WCI  30
$$

ILZ028>032-037-038-041>044-048-051>054-059>061-261600-
CENTRAL ILLINOIS

CITY           SKY/WX    TMP DP  RH WIND       PRES   REMARKS
BLOOMINGTON    MOSUNNY   38  30  73 N15       30.03S WCI  29
DECATUR        CLOUDY    37  30  75 NW13      30.04S WCI  29
PEORIA         SUNNY     40  26  57 NW10G18   30.06F
LINCOLN*       MOSUNNY   38  31  73 NW9G18    30.06F WCI  32
SPRINGFIELD    MOSUNNY   39  30  70 N13       30.07F WCI  31
TAYLORVILLE    NOT AVBL
$$

ILZ033-039-045-046-055>057-062-063-261600-
EAST-CENTRAL ILLINOIS

CITY           SKY/WX    TMP DP  RH WIND       PRES   REMARKS
CHAMPAIGN      CLOUDY    37  31  78 NW15      30.02R WCI  28
DANVILLE*      CLOUDY    35  31  85 NW12      29.98S WCI  27
RANTOUL*       CLOUDY    37  32  80 NW15      30.01S WCI  28
MATTOON        CLOUDY    37  35  92 N20       30.02R WCI  27
$$

ILZ079-100>102-261600-
SOUTHWEST ILLINOIS

CITY           SKY/WX    TMP DP  RH WIND       PRES   REMARKS
ALTON          CLOUDY    37  30  75 NW12G18   30.08S WCI  30
BELLEVILLE     CLOUDY    38  34  84 NW15      30.06S WCI  29
CAHOKIA*       CLOUDY    40  33  76 N15       30.08S
SPARTA*        CLOUDY    38  34  85 N14G20    30.06R WCI  30
$$

ILZ064>066-069>071-074>076-080>082-084>086-088>090-092>094-261600-
SOUTH-CENTRAL ILLINOIS

CITY           SKY/WX    TMP DP  RH WIND       PRES   REMARKS
CARBONDALE     LGT RAIN  40  36  86 N14       30.03R
CAIRO*         RAIN      44  42  92 N12G23    29.99R
EFFINGHAM*     CLOUDY    37  32  82 NW13      30.05R WCI  29
MARION         LGT RAIN  43  39  87 N12       30.03R
MT. VERNON     CLOUDY    39  32  75 N9        30.03S WCI  33
SALEM*         CLOUDY    39  35  83 N16G22    30.04S WCI  31
METROPOLIS*    DRIZZLE   45  45 100 N10G20    29.98R
$$

ILZ067-068-072-073-078-083-087-091-261600-
SOUTHEAST ILLINOIS

CITY           SKY/WX    TMP DP  RH WIND       PRES   REMARKS
LAWRENCEVILLE  LGT RAIN  39  36  89 NW17      30.01R WCI  30
HARRISBURG*    RAIN      42  41  97 N9        30.02S
ROBINSON*      RAIN      37  35  93 N12       30.02R WCI  29
CARMI*         CLOUDY   N/A N/A N/A NW14      30.01R HAZE
$$

ABBREVIATIONS USED IN REMARKS
   TC - TEMPERATURE IN CELSIUS
  WCI - WIND CHILL INDEX
   HX - HEAT INDEX
  VSB - VISIBILITY
$$




USA.gov is the U.S. government's official web portal to all federal, state and local government web resources and services.